Regional Weather Roundup
Issued by NWS

Home | Current Version | Previous Version | Text Only | Print | Product List | Glossary Off
Versions: 1 2 3 4 5 6 7 8 9 10 11 12 13 14 15 16 17 18 19 20 21 22 23 24 25 26 27 28 29 30 31 32 33 34 35 36 37 38 39 40 41 42 43 44 45 46 47 48 49 50

000
ASUS45 KSLC 252110
RWRUT

UTAH REGIONAL WEATHER ROUNDUP
NATIONAL WEATHER SERVICE SALT LAKE CITY UT
200 PM MST TUE NOV 25 2014

UTZ001>011-023>025-252200-

NORTHERN UTAH

CITY           SKY/WX    TMP DP  RH WIND       PRES   REMARKS
HILL AFB       CLOUDY    41  22  45 S9        30.30F
LOGAN          CLOUDY    40  30  67 VRB3      30.27F
OGDEN          CLOUDY    43  22  43 S12       30.30F
PROVO AIRPORT  CLOUDY    37  19  48 CALM      30.36S
SALT LAKE CITY PTSUNNY   43  26  51 S12       30.32S
VERNAL         MOSUNNY   41  14  33 NE3       30.15F
WENDOVER       SUNNY     57  32  38 NW28      30.29R
HEBER CITY     CLOUDY    37  21  52 CALM      30.31F
WEST JORDAN    CLOUDY    41  27  56 S12       30.34S

$$

UTZ012>022-026-027-252200-

SOUTHERN/CENTRAL UTAH

CITY           SKY/WX    TMP DP  RH WIND       PRES   REMARKS
BLANDING       SUNNY     41   6  23 S6        30.41S
BRYCE CANYON   SUNNY     45  19  35 NW20G33   30.36F
CEDAR CITY     SUNNY     52  14  22 CALM      30.36F
DELTA          MOSUNNY   46  16  30 SW5       30.36S
MILFORD        SUNNY     52  14  22 S13       30.34F
MOAB/CYNLANDS  SUNNY     44   9  23 W3        30.29F
PRICE          CLOUDY    37  12  35 CALM      30.28F
ST GEORGE      MOCLDY    52  10  19 S3        30.41F
KANAB          SUNNY     54   9  16 SW12      30.40F

$$

REGIONAL REPORTS     COLORADO/ARIZONA

CITY           SKY/WX    TMP DP  RH WIND       PRES   REMARKS
CRAIG, CO      CLOUDY    27  20  75 E14       30.16F WCI  16
GRAND JUNCTION MOSUNNY   37  15  40 SE6       30.31F WCI  32
RIFLE          CLOUDY    26  19  74 E3        30.31F
MONTROSE       CLOUDY    32  13  45 CALM      30.33F
CORTEZ         SUNNY     42   6  22 NW8       30.33F
PAGE, AZ       SUNNY     49   3  15 NE3       30.35
GRAND CANYON   SUNNY     50   1  13 W8        30.41F
KINGMAN        SUNNY     62   2   9 VRB6      30.39F
FLAGSTAFF        N/A     52   5  15 MISG      30.39F

$$

REGIONAL REPORTS    NEVADA/IDAHO/WYOMING

CITY           SKY/WX    TMP DP  RH WIND       PRES   REMARKS
LAS VEGAS, NV  SUNNY     59  11  15 S5        30.35F
ELY            MOSUNNY   53  37  54 N9        30.42F
ELKO           CLOUDY    51  30  44 SW10      30.40F
POCATELLO, ID  PTSUNNY   47  38  71 SW29G37   30.15F
BURLEY         CLOUDY    52  37  56 W20G31    30.18S
EVANSTON, WY   PTSUNNY   32  28  85 SW32G39   30.19F WCI  17
ROCK SPRINGS   CLOUDY    37  27  67 W26G40    30.07R WCI  25
KEMMERER       CLOUDY    32  28  86 W38G47    30.09R WCI  16

$$


USA.gov is the U.S. government's official web portal to all federal, state and local government web resources and services.